Location: Ingoldesthorpe
(52.8667°N, 0.5167°E)
Time: 19:24:05
(UTC+00:00)

USA-17 - Pass Details

Date: 19 May 2025
Orbit: 394 x 1603 km, 63.3° (Epoch: 22 June)

Event Time Altitude Azimuth Distance (km) Brightness Sun altitude
Rises 23:38:44 0° 313° (NW) 2,342 8.8 -17.1°
Reaches altitude 10° 23:40:46 10° 313° (NW) 1,450 7.6 -17.1°
Maximum altitude 23:43:51 90° 22° (NNE) 408 4.1 -17.1°
Enters shadow 23:44:45 44° 134° (SE) 577 4.6 -17.1°
